Current Version              Previous Version:    01  02  03  04  05  06  07  08  09  10  11  12  13  14  15  16  17  18  19  20  21  22  23  24  25  26  27  28  29  30  
   31  32  33  34  35  36  37  38  39  40  41  42  43  44  45  46  47  48  49  50  51  52  53  54  55  56  57  58  59  60  

[Printable]
959
ASUS44 KFWD 192010
RWRTX
NORTH TEXAS HOURLY WEATHER ROUNDUP
NATIONAL WEATHER SERVICE FORT WORTH TX
200 PM CST FRI DEC 19 2014

NOTE: "FAIR" INDICATES FEW OR NO CLOUDS BELOW 12,000 FEET WITH NO
SIGNIFICANT WEATHER AND/OR OBSTRUCTIONS TO VISIBILITY.

TXZ118-119-192100-
DALLAS/FORT WORTH METROPLEX

CITY           SKY/WX    TMP DP  RH WIND       PRES   REMARKS
DFW AIRPORT    CLOUDY    49  44  83 N7        30.14F
DALLAS LOVE    CLOUDY    49  45  86 NE8       30.15F FOG
FTW MEACHAM    CLOUDY    49  44  83 N9        30.15S HAZE
DAL-EXECUTIVE  CLOUDY    49  46  90 NE6       30.13F FOG
FTW-ALLIANCE   CLOUDY    47  44  90 N7        30.15F
FTW-SPINKS     CLOUDY    48  46  93 N9        30.16F FOG
ARLINGTON      CLOUDY    50  44  80 N9        30.15S
GRAND PRAIRIE  CLOUDY    48  46  93 N12       30.16F FOG
ADDISON        CLOUDY    48  45  87 NE6       30.15F FOG
MESQUITE       CLOUDY    46  46 100 N6        30.15F FOG
LANCASTER      CLOUDY    47  45  91 N7        30.15F FOG
$$

TXZ091>094-102>105-117-120-121-131>134-192100-
NORTH CENTRAL TEXAS

CITY           SKY/WX    TMP DP  RH WIND       PRES   REMARKS
SHRMAN/DENISON CLOUDY    47  45  91 CALM      30.17S
GAINESVILLE    CLOUDY    46  42  85 N9        30.18S
BOWIE          CLOUDY    46  42  88 N8        30.16F
BRIDGEPORT     CLOUDY    48  44  85 N6        30.18S
DECATUR        CLOUDY    46  43  89 N6        30.16S
DENTON         CLOUDY    47  43  86 N7        30.16S
MCKINNEY       CLOUDY    48  45  89 NE8       30.15F FOG
GREENVILLE     CLOUDY    46  45  93 N6        30.14F FOG
ROCKWALL       CLOUDY    47  46  96 NE9       30.14S FOG
TERRELL        CLOUDY    49  46  90 N8        30.14F FOG
WAXAHACHIE     CLOUDY    47  47 100 N7        30.15S FOG
CLEBURNE       CLOUDY    46  46 100 N9        30.16S FOG
GRANBURY       CLOUDY    49  45  87 NW7       30.17F
$$

TXZ083>090-098>101-113>116-127>130-139>142-154-155-192100-
WESTERN NORTH TEXAS

CITY           SKY/WX    TMP DP  RH WIND       PRES   REMARKS
WICHITA FALLS  CLOUDY    45  40  82 N9        30.18F
WF-KICKAPOO    CLOUDY    45  41  85 N6        30.19F
VERNON         CLOUDY    45  37  74 N3        30.20S
ABILENE        CLOUDY    47  41  80 N7        30.16F
ABILENE-DYESS  CLOUDY    47  38  73 NW5       30.15F
BRECKENRIDGE   CLOUDY    50  41  71 N3        30.16S
GRAHAM         CLOUDY    49  44  83 N5        30.15F
MINERAL WELLS  CLOUDY    48  43  82 N5        30.14F
STEPHENVILLE   CLOUDY    45  43  93 N7        30.17S
COMANCHE       CLOUDY    47  46  95 N7        30.15F
BROWNWOOD      MOSUNNY   52  45  76 E7        30.14F
COLEMAN        CLOUDY    51  45  80 NW12      30.14F
BRADY          MOSUNNY   54  43  66 NE5       30.11F
$$

TXZ143>147-156>162-174-175-192100-
CENTRAL TEXAS

CITY           SKY/WX    TMP DP  RH WIND       PRES   REMARKS
WACO           CLOUDY    49  47  93 N12       30.13S FOG
WACO-TSTC      CLOUDY    50  48  93 N9        30.13F FOG
WACO-MCGREGOR  CLOUDY    48  45  87 N13       30.13F
HILLSBORO      FOG       48  46  93 N13       30.13F VSB 1
CORSICANA      CLOUDY    50  47  89 N9        30.13F FOG
MEXIA          CLOUDY    49  47  94 N8        30.10F
HEARNE         CLOUDY    55  51  86 NW9       30.09F
CAMERON        CLOUDY    52  49  90 N12       30.10F
TEMPLE         CLOUDY    48  45  87 N14       30.10F
KILLEEN        CLOUDY    49  47  94 N10       30.11F
KILLEEN-SKYLRK CLOUDY    50  43  76 N10       30.08F
FORT HOOD      CLOUDY    49  47  95 N10       30.11
GATESVILLE     CLOUDY    48  46  93 N7        30.15S
HAMILTON       CLOUDY    48  48 100 N8        30.14S
LAMPASAS       CLOUDY    50  48  90 N6        30.11F
$$

TXZ095>097-106>112-122>126-135>138-148>153-164>167-192100-
EAST TEXAS

CITY           SKY/WX    TMP DP  RH WIND       PRES   REMARKS
PARIS          CLOUDY    45  43  93 NE6       30.16F
SULPHUR SPRNGS CLOUDY    46  45  95 NE8       30.17S FOG
MOUNT PLEASANT CLOUDY    46  45  94 N8        30.16F
MINEOLA        CLOUDY    48  46  93 N3        30.14S FOG
TYLER          CLOUDY    51  47  86 NE7       30.10F
LONGVIEW       CLOUDY    49  46  90 N7        30.10F
MARSHALL       CLOUDY    49  47  91 N9        30.14S
ATHENS         CLOUDY    48  46  93 N9        30.10F
PALESTINE      CLOUDY    52  49  91 N8        30.10F
JACKSONVILLE   LGT RAIN  49  48  97 N8        30.10S
HENDERSON      LGT RAIN  48  47  97 N9        30.12R
NACOGDOCHES    PTSUNNY   54  48  82 NE5       30.06F
LUFKIN         CLOUDY    53  49  86 E10       30.05F
$$

SUPPLEMENTAL OBSERVATIONS (CENTRAL)

CITY           SKY/WX    TMP DP  RH WIND       PRES   REMARKS
CADDO GRASSLND   N/A     46  43  87 N3          N/A
PAT MAYSE LAKE   N/A     45  43  93 VRB5        N/A
GREENVILLE       N/A     48  45  87 NE8         N/A
CEDAR HILL       N/A     48  43  81 VRB5        N/A
MCGREGOR         N/A     48  45  87 N7          N/A
TEMPLE           N/A     50  45  81 N2G12       N/A
$$

SUPPLEMENTAL OBSERVATIONS (WEST)

CITY           SKY/WX    TMP DP  RH WIND       PRES   REMARKS
MILLERS CREEK    N/A     46  43  87 N6          N/A
POSSUM KINGDOM   N/A     48  43  81 N3          N/A
GRANBURY         N/A     48  45  87 N7          N/A
HAMBY            N/A     46  39  76 N6          N/A
IVIE RESERVOIR   N/A     54  43  66 NW7         N/A
COLORADO BEND    N/A     50  45  81 N3          N/A
$$

SUPPLEMENTAL OBSERVATIONS (EAST)

CITY           SKY/WX    TMP DP  RH WIND       PRES   REMARKS
CLARKSVILLE      N/A     45  43  93 NE5         N/A
TEXARKANA        N/A     48  43  81 NE5         N/A
LINDEN           N/A     48  45  87 NE2         N/A
GILMER           N/A     48  43  81 NE6         N/A
HENDERSON        N/A     48  43  81 N8          N/A
LUFKIN           N/A     54  50  87 MISG        N/A
N SABINE NF      N/A     48  45  87 MISG        N/A
S SABINE NF      N/A     48  43  81 NE5G13      N/A
$$

SUPPLEMENTAL OBSERVATIONS ARE A COLLECTION OF AUTOMATED INSTRUMENTS
THAT ARE MAINTAINED BY A VARIETY OF FEDERAL AND STATE AGENCIES.
CERTAIN ELEMENTS...SUCH AS HUMIDITY VALUES AND SUSTAINED WIND
SPEEDS...MAY BE APPROXIMATED.